Location: Unspecified
(0.0000°N, 0.0000°E)
Time: 22:55:44
(UTC+00:00)

N. Korean satellite - Pass Details

Date: 24 July 2017
Orbit: 460 x 514 km, 97.2° (Epoch: 20 November)

Event Time Altitude Azimuth Distance (km) Brightness Sun altitude
Rises 18:54:04 0° 182° (S) 2,531 10.0 -11.2°
Reaches altitude 10° 18:56:15 10° 191° (S) 1,640 9.1 -11.7°
Maximum altitude 18:59:30 36° 259° (WSW) 757 8.1 -12.4°
Drops below altitude 10° 19:02:42 10° 327° (NNW) 1,610 10.0 -13.2°
Sets 19:04:50 0° 336° (NNW) 2,476 10.9 -13.7°
